Regional Weather Roundup
Issued by NWS Glasgow, MT

Home | Current Version | Previous Version | Text Only | Print | Product List | Glossary On
Versions: 1 2 3 4 5 6 7 8 9 10 11 12 13 14 15 16 17 18 19 20 21 22 23 24 25 26 27 28 29 30 31 32 33 34 35 36 37 38 39 40 41 42 43 44 45 46 47 48 49 50
000
ASUS45 KGGW 201115
RWRGGW
HOURLY REGIONAL WEATHER ROUNDUP FOR NORTHEAST MONTANA
NATIONAL WEATHER SERVICE GLASGOW MONTANA
500 AM MDT WED SEP 20 2017

NOTE: "FAIR" INDICATES FEW OR NO CLOUDS BELOW 12,000 FEET WITH NO
SIGNIFICANT WEATHER AND/OR OBSTRUCTIONS TO VISISBILITY.

NORTHEAST MONTANA


CITY           SKY/WX    TMP DP  RH WIND       PRES   REMARKS
GLASGOW        MOCLDY    42  35  76 W5        29.57S
WOLF POINT     PTCLDY    35  33  92 W3        29.59R
JORDAN           N/A     40  34  79 SW10      29.62R
WINNETT          N/A     36  30  80 W1          N/A
SIDNEY         CLEAR     41  38  89 S8        29.59S
GLENDIVE         N/A     45  37  73 W13       29.63R

FORT PECK REPORTS


CITY           SKY/WX    TMP DP  RH WIND       PRES   REMARKS
FORT PECK        N/A     48  33  56 SW14G22     N/A
THE PINES        N/A     49  33  54 SW8         N/A

SOUTHEAST MONTANA


CITY           SKY/WX    TMP DP  RH WIND       PRES   REMARKS
BILLINGS       CLEAR     44  34  67 W12       29.69F
MILES CITY     CLEAR     43  35  73 SW8       29.67R
BAKER          CLEAR     45  35  68 SW14      29.68R
LIVINGSTON     CLOUDY    42  31  64 NW9       29.72F

CENTRAL MONTANA


CITY           SKY/WX    TMP DP  RH WIND       PRES   REMARKS
HAVRE          CLEAR     42  33  70 SW14      29.54F
LEWISTOWN      CLEAR     43  26  51 W14       29.63S
GREAT FALLS    PTCLDY    44  26  49 SW15      29.60F
CUT BANK       MOCLDY    41  30  65 SW21      29.52F
HELENA         CLEAR     45  28  51 SW8       29.67S
BUTTE          CLOUDY    35  29  78 E3        29.74S
BOZEMAN        CLOUDY    43  30  60 SW3       29.74F

WESTERN MONTANA


CITY           SKY/WX    TMP DP  RH WIND       PRES   REMARKS
MISSOULA       CLOUDY    37  36  96 W5        29.71S
KALISPELL      NOT AVBL

NORTH DAKOTA


CITY           SKY/WX    TMP DP  RH WIND       PRES   REMARKS
WILLISTON      CLEAR     40  37  89 SW6       29.58R
DICKINSON      CLEAR     42  39  89 SW9       29.64R
MINOT          CLEAR     47  42  83 SW10      29.56R
BISMARCK       CLEAR     45  41  86 SW5       29.68R

SOUTHERN SASKATCHEWAN


CITY           SKY/WX    TMP DP  RH WIND       PRES   REMARKS
REGINA         PTCLDY    37  36  93 S3        29.47F
ESTEVAN        PTCLDY    41  39  93 W5        29.52F
SWIFT CURRENT  CLEAR     36  27  69 SW14      29.44F




USA.gov is the U.S. government's official web portal to all federal, state and local government web resources and services.